Location: �perlecques
(50.8057°N, 2.1521°E)
Time: 00:38:40
(UTC+00:00)

VELOX 1 - Pass Details

Date: 01 October 2021
Orbit: 627 x 642 km, 98.3° (Epoch: 21 October)

Event Time Altitude Azimuth Distance (km) Brightness Sun altitude
Exits shadow 04:57:03 11° 282° (WNW) 1,938 ? -9.5°
Drops below altitude 10° 04:57:51 10° 293° (WNW) 2,014 ? -9.4°
Sets 05:01:40 0° 327° (NNW) 2,927 ? -8.8°
